Welcome to the New NWS' Forecast!
Most changes are behind the scenes, but click here for differences you might notice.
Latest weather observations around

El Dorado, South Arkansas Regional at Goodwin Field Airport (KELD)

Using English Units (Switch to International System of Units)
Date/ Time (CST) Wind (mph) Vis. (mi) Weather Sky Cond. Temp (°F) Rel. Humidity Wind Chill (°F) Heat Index (°F) Pressure Precip. (in)
Air Dwpt 6 hour Altimeter (inHg) Sea level (inHg) 1 hr 3 hr 6 hr
Max Min
Jan 21 09:53 SSE 8 10 Cloudy OVC014 62 60     93%       30.06      
Jan 21 09:24 SSE 7 10 Cloudy OVC014 61 60     97%              
Jan 21 09:03 SE 8 10 Cloudy OVC015 60 60     100%              
Jan 21 08:53 ESE 7 10 Cloudy OVC013 60 60     100%       30.06      
Jan 21 08:14 SSE 7 10 Cloudy OVC013 59 59     100%              
Jan 21 07:53 SSE 7 10 Cloudy OVC017 60 59     96%       30.04      
Jan 21 06:53 SE 7 10 Cloudy OVC016 61 60     97%       30.04      
Jan 21 05:53 S 9 10 Cloudy OVC016 62 60     93%       30.05      
Jan 21 04:53 S 8 10 Cloudy OVC016 62 60     93%       30.03      
Jan 21 03:53 SSE 10 10 Cloudy OVC015 62 60     93%       30.03      
Jan 21 02:53 S 9 10 Cloudy OVC015 62 60     93%       30.04      
Jan 21 01:53 S 10 10 Cloudy OVC015 62 60     93%       30.05      
Jan 21 01:50 S 10 10 Cloudy OVC015 63 61     94%              
Jan 21 00:53 SSE 10 10 Cloudy OVC012 61 60     97%       30.04      
Jan 20 23:53 SSE 11 10 Cloudy OVC012 60 60     100%       30.05     0
Jan 20 22:53 S 11 10 Cloudy OVC010 60 59     96%       30.06      
Jan 20 22:30 SSE 11 10 Cloudy BKN011 BKN026 OVC060 59 59     100%              
Jan 20 22:07 SSE 10 10 Cloudy SCT013 BKN026 OVC050 59 59     100%              
Jan 20 21:53 SSE 10 10 Cloudy SCT013 BKN037 OVC049 59 59     100%       30.07 0    
Jan 20 21:51 SSE 10 10 Cloudy SCT013 BKN039 OVC049 59 59     100%         0    
Jan 20 21:41 SE 9 10 Cloudy BKN013 BKN036 OVC047 59 59     100%         0    
Jan 20 20:53 SSE 9 10 Cloudy BKN037 OVC047 60 58     93%       30.07 0 0  
Jan 20 19:53 SE 9 10 Partly Cloudy SCT036 60 58     93%       30.07      
Jan 20 18:53 SSE 8 10 Mostly Cloudy FEW023 SCT029 BKN041 61 59     93%       30.07      
Notice The following observation data may not be complete
Jan 20 17:53 SE 7 10 Mostly Cloudy SCT032 BKN038   58      %       30.05      
Jan 20 16:53 SSE 9 10 Cloudy FEW026 BKN030 OVC048 63 58     84%     30.06 30.06      
Jan 20 15:53 SSE 8 10 Cloudy BKN026 OVC032 64 58     81%     30.05 30.05      
Jan 20 14:53 SSE 9 10 Cloudy BKN025 OVC033 64 58     81%     30.05 30.05      
Jan 20 13:53 S 13 10 Cloudy BKN021 OVC026 63 57     81%       30.06      
Jan 20 12:53 SSE 10 10 Cloudy OVC019 62 56     80%       30.09      
Jan 20 12:24 S 9 10 Cloudy OVC015 60 55     83%              
Notice The following observation data may not be complete
Jan 20 11:53 SE 7 10 Cloudy OVC012   54      %       30.12 0   0
Notice The following observation data may not be complete
Jan 20 11:08 SSE 15 10 Cloudy OVC014   52      %         0    
Notice The following observation data may not be complete
Jan 20 10:53 SSE 9 10 Light Rain OVC015   52      %       30.15 0    
Jan 20 10:27 SSE 10 10 Mostly Cloudy BKN015 BKN023 57 50     77%     30.15        
Jan 20 10:17 S 10 10 Mostly Cloudy BKN014 56 49     77%     30.16        
Jan 20 09:53 SSE 8 10 Partly Cloudy SCT013 56 48     75%     30.15 30.14      
Jan 20 08:53 SSE 6 10 Cloudy OVC012 50 42     74% 48   30.15 30.14      
Jan 20 07:53 SE 7 10 Cloudy OVC011 47 38     71% 44   30.13 30.13      
Jan 20 07:30 SSE 6 10 Cloudy OVC013 47 37     68% 44   30.14        
Jan 20 06:53 SSE 8 10 Cloudy OVC015 47 35     63% 43   30.13 30.13      
Jan 20 06:28 SSE 7 10 Cloudy OVC015 47 33     58% 44   30.13        
Jan 20 05:53 SSE 6 10 Cloudy OVC014 47 32     56% 44   30.13 30.12      
Jan 20 05:37 SSE 6 10 Cloudy BKN014 OVC023 47 31     53% 44   30.12        
Jan 20 04:53 SSE 5 10 Cloudy OVC017 47 30     52% 45   30.13 30.13      
Jan 20 04:39 SSE 5 10 Cloudy BKN018 OVC030 46 30     53% 44   30.13        
Jan 20 03:53 SSE 6 10 Cloudy FEW023 OVC030 46 29     51% 43   30.13 30.13      
Jan 20 02:53 S 6 10 Cloudy OVC027 45 29     53% 42   30.15 30.14      
Jan 20 02:11 S 6 10 Mostly Cloudy BKN026 BKN080 44 28     53% 41   30.15        
Jan 20 01:53 S 7 10 Mostly Cloudy SCT055 BKN080 44 28     53% 40   30.15 30.15      
Jan 20 00:53 S 7 10 Partly Cloudy SCT070 44 26     49% 40   30.16 30.16      
Jan 19 23:53 SSE 6 10 Cloudy FEW050 OVC065 45 24     44% 42   30.17 30.17      
Jan 19 22:53 SSE 7 10 Cloudy OVC060 46 24     42% 42   30.18 30.17      
Jan 19 21:53 SSE 6 10 Cloudy OVC050 47 23     39% 44   30.17 30.17      
Jan 19 20:53 S 7 10 Cloudy OVC050 47 22     37% 44   30.17 30.17      
Jan 19 19:53 SE 8 10 Cloudy BKN041 OVC055 48 21     34% 44   30.16 30.16      
Jan 19 18:53 SSE 9 10 Cloudy OVC049 49 19     30% 45   30.16 30.16      
Jan 19 17:53 SSE 9 10 Cloudy SCT034 OVC044 50 20     30% 46   30.16 30.16      
Jan 19 16:53 SSE 6 10 Cloudy OVC041 50 23     34% 48   30.16 30.16      
Jan 19 15:53 SSE 7 10 Cloudy SCT039 OVC045 51 24     35%     30.17 30.17      
Jan 19 14:53 S 10 10 Cloudy BKN039 OVC047 50 23     34% 46   30.18 30.18      
Jan 19 13:53 S 8 10 Cloudy FEW029 BKN035 OVC049 49 22     34% 45   30.2 30.2      
Jan 19 12:53 SSE 9 10 Cloudy BKN035 OVC047 46 23     40% 41   30.23 30.24      
Jan 19 11:53 S 7 10 Cloudy OVC034 45 24     44% 41   30.27 30.27      
Jan 19 10:53 S 8 10 Cloudy BKN036 OVC050 42 23     46% 37   30.3 30.3      
Jan 19 08:53 S 6 10 Cloudy OVC039 37 23     56% 32     30.32      
Jan 19 07:53 S 6 10 Cloudy BKN041 OVC050 35 23     61% 30     30.31      
Jan 19 06:53 S 5 10 Cloudy OVC048 35 22     58% 31     30.31      
Jan 19 05:53 S 5 10 Cloudy OVC046 34 21     59% 30     30.3      
Jan 19 04:53 S 6 10 Cloudy FEW043 OVC050 33 21     61% 28     30.31      
Jan 19 03:53 S 3 10 Cloudy OVC049 32 22     66% 29     30.32      
Jan 19 02:53 S 5 10 Cloudy OVC049 30 23     75% 25     30.34      
Jan 19 01:53 Calm 10 Cloudy OVC050 27 20     75%       30.35      
Jan 19 00:53 S 3 10 Mostly Clear FEW055 24 20     84% 20     30.37      
Notice The following observation data may not be complete
Jan 18 23:53 Calm 10 Clear CLR   19      %       30.38      
Jan 18 22:53 Calm 10 Clear CLR 24 19     81%       30.4      
Jan 18 21:53 Calm 10 Clear CLR 25 19     78%     30.4 30.4      
Jan 18 20:53 Calm 10 Clear CLR 25 20     81%     30.4 30.4      
Jan 18 19:53 Calm 10 Clear CLR 26 20     77%     30.39 30.4      
Jan 18 18:53 Calm 10 Clear CLR 28 20     71%     30.4 30.41      
Jan 18 17:53 Calm 10 Clear CLR 33 21     61%     30.39 30.4      
Jan 18 16:53 S 6 10 Clear CLR 40 17     39% 36   30.41 30.42      
Jan 18 15:53 S 6 10 Clear CLR 41 17     38% 37   30.42 30.43      
Jan 18 14:53 3 10 Clear CLR 41 15     34% 39   30.43 30.44      
Jan 18 13:53 S 3 10 Clear CLR 40 18     41% 38     30.47      
Jan 18 12:53 Calm 10 Clear CLR 36 15     42%       30.51      
Notice The following observation data may not be complete
Jan 18 11:53 Calm 10 Clear CLR   16      %       30.57      
Jan 18 10:53 Calm 10 Clear CLR 31 17     56%       30.6      
Notice The following observation data may not be complete
Jan 18 09:53 S 3 10 Clear CLR   19      %       30.62      
Jun 08 23:53 Calm 10 Clear CLR 63 59     87%     29.95 29.93      
Jun 06 05:53 N 6 10 Cloudy OVC004 71 70     96%   72 29.78 29.76      
Jun 06 01:25 N 3 10 Cloudy SCT006 BKN011 OVC030 71 69     93%   72 29.78